Date,TemperatureHighF,TemperatureAvgF,TemperatureLowF,DewpointHighF,DewpointAvgF,DewpointLowF,HumidityHigh,HumidityAvg,HumidityLow,PressureMaxIn,PressureMinIn,WindSpeedMaxMPH,WindSpeedAvgMPH,GustSpeedMaxMPH,PrecipitationSumIn
2013-1-1,37.0,31.4,19.1,27.2,20.8,8.7,77,65,54,30.01,29.81,7,2,11,0.08
2013-1-2,31.9,21.0,7.6,16.7,10.8,4.2,89,65,52,30.17,29.96,6,1,8,0.03
2013-1-3,26.2,17.6,4.7,15.5,6.8,-1.7,76,63,48,30.21,30.04,5,0,6,0.02
2013-1-4,39.1,28.8,17.0,25.9,20.6,13.7,88,72,56,30.04,29.88,10,1,18,0.06
2013-1-5,41.6,32.1,21.6,26.5,22.0,17.8,87,67,51,30.29,29.94,8,1,12,0.00
2013-1-6,43.3,32.3,24.1,31.6,26.2,20.0,93,79,58,30.25,29.96,7,1,8,0.00
2013-1-7,40.2,29.6,18.3,29.3,22.5,15.3,93,77,47,30.42,30.02,6,1,10,0.00
2013-1-8,47.4,32.7,17.2,32.0,25.8,14.8,93,77,54,30.41,30.32,9,1,11,0.00
2013-1-9,44.2,33.3,20.8,36.7,28.9,18.8,93,84,70,30.40,30.08,8,1,10,0.00
2013-1-10,46.2,39.2,26.6,33.9,26.4,23.2,87,61,45,30.56,30.15,11,2,16,0.00
2013-1-11,38.6,31.0,23.3,36.8,27.7,20.9,95,87,73,30.56,30.19,3,0,5,0.21
2013-1-12,42.0,38.5,34.4,40.7,37.4,33.1,97,96,94,30.21,30.13,2,0,3,0.08
2013-1-13,52.4,44.9,39.7,48.5,43.4,38.9,97,95,85,30.17,30.02,4,1,6,0.01
2013-1-14,56.3,47.7,37.5,51.8,41.3,27.8,97,80,54,30.31,29.87,7,1,11,0.00
2013-1-15,39.3,36.2,31.8,29.8,27.5,25.7,82,71,60,30.36,30.24,6,1,6,0.01
2013-1-16,34.8,32.2,29.3,31.6,30.1,25.9,95,92,71,30.26,29.84,2,0,5,0.02
2013-1-17,41.7,33.1,26.2,34.5,27.0,16.8,96,79,59,30.14,29.88,6,1,10,0.53
2013-1-18,28.9,23.7,19.3,17.5,7.6,2.3,64,50,38,30.49,30.07,9,2,13,0.01
2013-1-19,44.9,37.4,23.5,33.9,25.5,11.0,76,62,54,30.39,29.90,7,2,14,0.00
2013-1-20,51.8,41.4,28.0,33.0,26.1,10.4,73,56,25,30.00,29.64,11,3,20,0.00
2013-1-21,29.0,25.0,19.7,22.5,15.3,9.7,91,68,46,30.13,29.80,5,1,9,0.00
2013-1-22,23.8,19.6,12.7,21.6,5.2,-4.2,93,56,36,30.15,29.79,8,2,15,0.00
2013-1-23,18.0,12.1,8.1,0.0,-3.0,-5.5,66,51,39,30.22,30.13,12,2,12,0.00
2013-1-24,20.7,12.1,2.9,2.2,-3.2,-6.9,76,52,33,30.34,30.16,16,2,16,0.00
2013-1-25,22.2,17.0,9.8,15.3,1.6,-2.4,87,52,34,30.40,30.08,5,1,8,0.00
2013-1-26,26.5,16.9,7.4,14.0,7.4,3.3,89,68,43,30.33,30.05,8,1,10,0.00
2013-1-27,32.6,20.9,9.0,9.7,5.2,1.0,83,53,29,30.51,30.33,6,1,9,0.00
2013-1-28,32.8,26.0,15.6,31.3,19.9,7.3,95,79,40,30.50,30.01,5,0,11,0.00
2013-1-29,34.3,31.4,27.7,33.3,29.7,26.5,96,93,90,30.19,30.01,2,0,3,0.20
2013-1-30,58.7,47.8,34.1,57.0,46.2,32.8,97,94,89,30.16,29.43,11,2,14,0.02
2013-1-31,61.5,47.6,31.0,58.8,35.4,13.3,94,65,38,29.67,29.02,18,5,30,0.44
2013-2-1,32.3,27.4,21.4,18.9,11.0,5.3,63,50,37,30.17,29.67,8,3,14,0.03
2013-2-2,30.1,24.3,15.4,18.9,10.7,5.8,82,57,39,30.29,30.08,7,2,12,0.03
2013-2-3,31.5,24.4,18.2,20.3,17.7,15.6,91,76,57,30.09,29.78,4,1,5,0.05
2013-2-4,31.0,25.1,17.7,17.7,11.6,6.7,87,58,40,29.98,29.79,7,1,15,0.00
2013-2-5,28.7,25.8,23.4,23.0,17.8,8.8,88,72,49,30.03,29.94,3,0,5,0.00
2013-2-6,39.4,30.8,24.3,28.2,19.3,3.4,91,65,35,30.36,29.93,7,1,10,0.15
2013-2-7,32.5,25.6,17.0,13.9,9.3,6.0,70,51,35,30.55,30.36,5,1,7,0.02
2013-2-8,32.9,28.6,20.6,30.6,23.7,9.9,93,82,48,30.44,29.63,8,2,12,0.00
2013-2-9,27.3,22.5,14.8,22.5,12.6,1.5,93,68,41,30.30,29.69,13,4,22,0.04
2013-2-10,35.9,16.1,-2.3,15.6,5.3,-5.9,88,67,26,30.48,30.30,4,0,5,0.27
2013-2-11,45.2,31.1,15.5,44.0,28.5,12.3,97,90,84,30.37,29.67,4,0,7,0.58
2013-2-12,43.6,38.0,32.2,37.5,30.5,25.5,97,75,56,29.95,29.68,7,1,11,0.03
2013-2-13,42.1,36.8,33.3,29.0,25.3,22.5,79,63,50,29.93,29.72,5,1,7,0.00
2013-2-14,43.7,34.4,24.3,29.2,26.0,22.8,95,73,48,30.01,29.74,5,1,6,0.00
2013-2-15,50.1,38.6,29.3,35.4,32.3,26.7,94,79,57,30.01,29.93,8,1,11,0.00
2013-2-16,39.3,34.3,29.4,33.3,26.9,20.1,94,76,53,29.98,29.73,8,2,14,0.06
2013-2-17,29.3,23.4,15.8,20.0,7.2,2.4,71,50,40,29.87,29.56,16,4,19,0.00
2013-2-18,32.4,21.9,13.9,12.2,5.1,1.8,72,50,30,30.21,29.87,10,2,17,0.00
2013-2-19,47.5,35.5,19.7,42.1,28.9,11.9,95,78,54,30.22,29.62,9,1,11,0.14
2013-2-20,39.4,31.4,25.2,37.5,18.4,10.1,93,59,45,29.90,29.62,10,2,16,0.02
2013-2-21,31.9,26.2,22.2,16.7,13.8,11.5,70,59,51,30.31,29.88,10,2,13,0.00
2013-2-22,37.7,26.1,15.2,27.4,19.5,12.0,89,76,56,30.43,30.30,3,0,6,0.00
2013-2-23,38.6,35.4,33.7,34.8,31.0,26.4,94,84,74,30.33,29.87,6,1,9,0.09
2013-2-24,38.1,35.1,32.2,35.5,33.1,29.6,95,92,85,29.94,29.73,11,2,11,0.15
2013-2-25,43.5,35.5,24.8,31.6,28.8,22.9,94,77,61,30.26,29.94,6,1,8,0.02
2013-2-26,41.8,37.2,33.0,31.8,29.5,25.2,89,75,59,30.34,30.09,5,1,11,0.00
2013-2-27,44.2,40.5,35.3,41.9,38.0,31.2,94,91,83,30.09,29.57,9,2,15,0.07
2013-2-28,46.8,38.7,34.5,40.2,35.5,33.2,96,89,73,29.65,29.55,6,0,6,0.71
2013-3-1,46.1,39.0,31.9,35.5,31.5,27.3,95,76,53,29.74,29.57,7,1,10,0.00
2013-3-2,39.7,35.1,32.2,28.5,27.3,26.1,79,73,62,29.75,29.68,6,1,8,0.00
2013-3-3,37.7,31.5,29.0,28.3,24.3,21.4,85,75,61,29.71,29.63,5,2,9,0.00
2013-3-4,40.3,32.2,26.7,26.1,22.5,20.1,77,67,53,29.85,29.70,14,2,15,0.00
2013-3-5,47.3,37.6,25.9,30.8,26.3,21.2,83,64,51,30.07,29.85,8,1,10,0.00
2013-3-6,42.7,38.2,34.2,36.5,32.1,28.2,86,79,64,30.05,29.98,17,3,19,0.01
2013-3-7,37.4,34.3,31.9,33.2,30.4,28.7,95,86,73,30.07,29.98,10,3,18,0.09
2013-3-8,37.9,34.2,31.3,33.6,30.5,26.5,95,87,69,30.19,29.97,5,1,8,0.16
2013-3-9,54.3,38.7,24.6,29.6,25.3,21.3,89,62,28,30.36,30.18,7,1,12,0.71
2013-3-10,50.6,36.9,22.0,34.5,29.2,20.0,93,75,50,30.42,30.31,6,1,7,0.00
2013-3-11,52.8,43.7,36.4,43.7,38.2,32.0,90,82,63,30.35,30.13,6,1,8,0.00
2013-3-12,54.8,51.0,43.5,52.8,47.8,38.1,94,89,81,30.14,29.70,11,3,13,0.84
2013-3-13,51.5,41.8,31.7,38.0,29.6,24.8,89,64,39,29.85,29.77,9,1,12,0.00
2013-3-14,38.4,31.9,28.3,29.2,18.8,12.1,87,59,41,29.91,29.82,14,2,18,0.00
2013-3-15,43.1,33.4,25.1,29.9,19.0,10.0,79,56,34,29.94,29.71,13,2,15,0.00
2013-3-16,38.9,34.2,29.4,29.5,20.2,12.7,83,58,37,29.90,29.77,5,1,7,0.00
2013-3-17,39.1,32.1,25.2,20.4,12.8,8.1,64,46,30,30.33,29.91,9,2,14,0.00
2013-3-18,38.8,29.7,18.9,27.7,11.5,3.7,92,50,26,30.47,30.16,6,1,9,0.00
2013-3-19,37.6,33.5,29.8,35.4,31.2,27.5,95,91,86,30.16,29.66,7,1,14,0.45
2013-3-20,41.1,33.4,25.3,31.2,22.1,18.5,95,65,42,29.84,29.76,7,1,14,0.24
2013-3-21,37.7,31.5,25.0,25.4,20.8,14.1,85,65,42,29.85,29.64,5,1,6,0.01
2013-3-22,41.8,32.1,19.7,24.7,19.3,13.3,81,60,44,29.83,29.69,9,1,12,0.00
2013-3-23,45.5,37.3,32.4,26.5,22.8,19.8,74,57,38,29.88,29.75,9,2,19,0.00
2013-3-24,47.8,38.5,25.3,27.7,24.2,20.7,84,58,42,29.90,29.73,9,1,10,0.00
2013-3-25,46.5,38.6,30.2,30.7,27.7,24.8,82,66,47,29.78,29.48,10,2,14,0.00
2013-3-26,49.3,40.3,29.7,31.1,26.9,21.1,80,60,38,29.84,29.57,7,1,11,0.00
2013-3-27,56.3,40.7,24.3,31.1,25.7,21.0,88,59,29,29.92,29.80,8,1,14,0.00
2013-3-28,53.5,43.5,34.3,36.1,32.1,28.2,85,65,43,30.07,29.92,7,1,9,0.00
2013-3-29,57.1,46.0,31.6,36.9,31.7,28.7,90,59,39,30.11,30.02,8,1,10,0.00
2013-3-30,58.1,46.0,32.5,33.3,27.2,21.1,84,52,25,30.14,30.04,6,1,11,0.00
2013-3-31,58.2,43.9,27.8,41.9,30.3,23.4,90,62,31,30.15,29.68,13,2,14,0.03
2013-4-1,62.0,46.3,34.1,46.6,38.2,20.0,95,75,50,29.87,29.56,9,2,16,0.13
2013-4-2,43.4,35.0,26.5,20.5,15.8,10.3,73,47,28,30.02,29.87,8,2,13,0.00
2013-4-3,46.3,36.8,29.8,19.7,15.7,13.5,55,43,29,30.27,30.02,15,2,15,0.00
2013-4-4,54.3,40.3,25.9,31.7,22.0,14.6,74,50,26,30.38,30.09,13,2,13,0.00
2013-4-5,62.6,46.4,39.2,32.5,27.6,15.3,76,52,21,30.09,29.69,14,2,16,0.00
2013-4-6,49.3,39.9,32.5,25.9,14.4,6.9,65,37,19,30.34,29.96,12,2,17,0.00
2013-4-7,55.9,44.6,30.5,43.1,31.9,15.9,85,62,44,30.34,30.03,12,3,15,0.00
2013-4-8,67.9,54.6,39.8,44.6,40.9,36.9,95,64,33,30.09,29.99,7,1,9,0.00
2013-4-9,74.5,61.5,49.1,54.9,45.8,39.1,92,60,34,30.04,29.89,10,2,15,0.00
2013-4-10,67.6,56.5,49.8,53.2,49.3,40.8,94,78,53,30.00,29.83,4,1,7,0.52
2013-4-11,59.6,51.5,43.1,49.1,41.4,29.6,94,70,43,30.12,29.83,7,2,10,0.00
2013-4-12,43.7,41.1,38.3,38.3,35.7,31.4,93,82,64,30.13,29.79,9,2,13,0.34
2013-4-13,54.8,45.5,36.7,39.9,36.6,34.6,94,73,50,29.95,29.75,7,1,8,0.10
2013-4-14,54.3,45.0,35.0,39.1,34.7,27.0,92,69,43,30.25,29.95,9,1,12,0.00
2013-4-15,60.7,45.9,32.3,36.8,31.8,27.5,85,61,37,30.41,30.25,6,1,9,0.00
2013-4-16,65.8,52.2,35.7,51.4,44.1,33.2,91,75,49,30.41,30.11,10,2,13,0.00
2013-4-17,67.5,58.0,48.1,52.6,39.9,30.4,91,54,28,30.33,30.11,7,1,11,0.01
2013-4-18,62.0,52.4,39.4,48.4,38.5,32.2,89,62,33,30.40,30.14,12,2,12,0.00
2013-4-19,73.3,62.7,53.9,62.9,58.6,48.4,95,87,68,30.15,29.67,15,3,16,0.02
2013-4-20,62.9,52.4,41.4,61.1,39.5,25.9,94,66,34,30.30,29.65,12,2,13,0.46
2013-4-21,54.6,43.7,32.9,32.2,24.1,20.7,67,47,29,30.67,30.30,7,2,14,0.00
2013-4-22,58.3,46.9,33.9,33.3,30.5,26.1,86,56,32,30.73,30.56,8,2,15,0.00
2013-4-23,45.6,42.0,37.5,39.8,36.3,30.0,87,80,68,30.57,30.11,8,2,13,0.00
2013-4-24,72.9,54.5,42.3,49.0,44.4,38.9,89,72,37,30.11,29.84,9,2,11,0.00
2013-4-25,62.4,53.5,40.9,51.0,35.5,20.4,93,55,23,30.28,29.87,10,2,13,0.06
2013-4-26,67.4,52.1,34.0,39.6,32.4,27.9,84,51,28,30.42,30.28,6,1,8,0.00
2013-4-27,67.3,53.1,36.1,42.4,36.9,30.7,88,57,29,30.43,30.28,5,1,8,0.00
2013-4-28,70.3,55.7,39.1,43.2,37.7,28.5,91,55,31,30.34,30.23,8,1,12,0.00
2013-4-29,65.3,56.3,49.0,48.2,38.9,17.3,84,55,18,30.27,30.23,8,1,10,0.00
2013-4-30,71.0,57.6,44.9,41.1,34.8,26.5,75,46,22,30.36,30.25,7,1,9,0.00
2013-5-1,74.6,55.7,36.0,47.4,38.2,30.7,84,55,29,30.50,30.35,6,1,9,0.00
2013-5-2,79.7,59.9,40.4,50.0,42.9,30.3,95,59,29,30.48,30.29,5,1,9,0.00
2013-5-3,69.4,57.4,45.5,46.9,40.9,31.9,81,55,40,30.51,30.35,6,1,9,0.00
2013-5-4,73.7,56.7,41.5,48.8,42.1,34.5,94,64,25,30.39,30.23,7,1,21,0.00
2013-5-5,71.0,52.2,34.8,45.8,39.4,32.5,93,66,31,30.33,30.19,6,1,9,0.00
2013-5-6,74.0,56.9,41.2,51.4,46.0,39.1,93,69,43,30.30,30.14,8,1,9,0.00
2013-5-7,78.5,61.9,43.7,63.0,51.6,42.1,95,72,42,30.19,30.09,5,1,8,0.00
2013-5-8,74.2,63.3,55.5,62.6,58.7,53.3,94,86,61,30.17,30.04,8,1,14,0.45
2013-5-9,66.3,59.6,54.0,60.6,57.0,52.6,97,91,75,30.05,29.88,3,0,5,0.16
2013-5-10,80.5,65.8,49.9,61.3,55.8,49.1,98,73,45,29.99,29.91,4,1,7,0.01
2013-5-11,67.3,63.1,59.4,62.7,59.6,54.9,94,89,74,29.92,29.69,8,1,13,0.30
2013-5-12,72.3,60.7,49.7,59.4,49.6,29.8,95,70,40,29.88,29.61,7,1,11,0.04
2013-5-13,59.1,49.4,39.3,36.6,32.4,29.2,82,53,36,30.08,29.88,7,1,10,0.00
2013-5-14,59.9,47.9,35.1,38.3,33.2,28.2,89,60,31,30.11,30.02,4,1,8,0.00
2013-5-15,62.4,50.9,33.8,53.7,43.4,32.0,94,77,41,30.10,29.70,10,1,12,0.03
2013-5-16,83.8,65.5,43.3,53.7,46.0,35.4,97,58,20,29.82,29.67,9,1,15,0.00
2013-5-17,72.0,61.3,49.0,50.6,42.1,36.7,81,51,33,30.22,29.82,8,1,9,0.00
2013-5-18,72.6,58.5,43.5,51.6,46.3,41.6,95,67,35,30.33,30.22,7,1,11,0.00
2013-5-19,62.3,55.9,47.9,56.1,52.1,45.3,95,87,75,30.37,30.20,4,0,7,0.14
2013-5-20,83.6,68.3,57.1,68.8,62.3,55.7,97,83,55,30.20,29.93,5,1,7,0.01
2013-5-21,89.1,72.6,59.3,73.4,65.8,56.7,97,81,54,29.98,29.81,9,1,11,0.35
2013-5-22,77.7,65.1,54.8,70.1,61.3,51.9,95,88,75,30.00,29.84,5,1,8,0.17
2013-5-23,74.4,68.5,65.0,69.6,65.7,63.3,95,91,83,29.92,29.78,7,1,10,0.47
2013-5-24,69.7,60.0,46.4,66.1,57.1,44.7,96,90,78,29.90,29.66,5,1,8,1.07
2013-5-25,48.5,46.3,43.9,46.3,43.9,40.2,95,92,84,29.89,29.82,7,1,12,0.28
2013-5-26,60.0,50.8,42.7,46.2,42.5,39.9,93,74,54,30.17,29.84,10,2,15,0.01
2013-5-27,74.2,57.7,38.4,46.2,41.3,37.1,96,61,29,30.22,30.10,8,1,15,0.00
2013-5-28,74.2,58.9,43.6,56.5,49.6,42.0,95,74,36,30.24,30.17,4,0,8,0.00
2013-5-29,79.6,66.8,58.1,69.1,62.2,56.3,96,86,68,30.17,29.98,8,1,8,1.23
2013-5-30,91.1,75.7,61.2,73.8,67.4,60.3,97,78,46,30.12,30.02,5,0,9,0.21
2013-5-31,94.3,78.8,65.0,74.1,67.5,61.2,98,72,34,30.11,29.97,5,1,11,0.00
2013-6-1,90.2,78.1,65.7,73.1,67.6,62.5,90,71,53,30.00,29.89,6,1,10,0.00
2013-6-2,86.0,76.2,69.2,71.9,67.5,64.7,88,75,59,29.91,29.75,10,2,13,0.00
2013-6-3,77.8,70.1,62.1,68.6,64.1,48.5,95,82,60,29.89,29.78,3,0,7,0.59
2013-6-4,72.6,62.5,49.2,50.6,46.4,39.7,85,57,42,30.11,29.89,8,1,15,0.00
2013-6-5,75.4,62.6,48.6,54.5,49.5,46.7,94,65,40,30.22,30.10,6,0,8,0.00
2013-6-6,71.9,61.3,50.9,60.4,53.5,47.6,94,77,53,30.20,30.08,7,1,8,0.10
2013-6-7,61.8,58.7,55.3,60.4,56.9,52.7,96,94,89,30.08,29.75,3,0,6,2.94
2013-6-8,78.0,65.2,53.1,66.1,58.4,52.0,96,80,60,30.04,29.63,5,1,10,0.61
2013-6-9,80.3,68.4,54.9,62.1,57.8,53.5,96,72,44,30.18,30.04,5,1,9,0.00
2013-6-10,72.9,64.1,57.0,64.9,60.2,55.6,96,88,71,30.19,29.92,6,0,8,0.34
2013-6-11,75.5,64.0,59.5,68.4,61.8,58.1,96,93,76,29.92,29.55,8,0,8,1.21
2013-6-12,73.3,65.6,56.6,59.5,54.7,51.6,88,69,52,29.85,29.62,11,2,18,0.00
2013-6-13,60.7,56.3,51.5,58.1,54.1,50.1,96,93,87,29.84,29.62,5,0,9,1.35
2013-6-14,74.0,60.7,51.4,58.7,54.0,50.0,96,81,48,29.84,29.60,6,1,11,0.92
2013-6-15,79.4,66.1,51.2,57.7,52.7,47.1,97,67,33,29.98,29.84,6,1,9,0.00
2013-6-16,77.3,66.8,50.9,65.7,57.8,49.2,95,74,52,29.98,29.74,6,1,9,0.00
2013-6-17,86.3,71.3,59.2,67.9,62.6,58.0,96,77,43,29.93,29.80,7,1,12,0.01
2013-6-18,82.8,67.2,60.0,68.0,62.3,58.6,95,86,57,29.93,29.82,8,0,10,0.38
2013-6-19,76.3,65.0,54.1,59.3,53.7,47.6,96,70,38,30.17,29.91,4,1,7,0.01
2013-6-20,80.3,65.2,48.6,59.6,53.3,47.2,96,69,41,30.28,30.17,4,1,8,0.00
2013-6-21,82.7,71.3,60.0,66.9,59.8,54.5,83,68,56,30.28,30.20,6,1,9,0.00
2013-6-22,83.5,69.7,60.7,64.5,58.2,54.4,81,67,46,30.25,30.13,5,1,9,0.00
2013-6-23,89.5,76.8,65.0,72.3,66.0,56.6,87,70,51,30.19,30.04,7,1,11,0.00
2013-6-24,93.8,79.9,70.3,75.5,71.1,68.3,94,77,48,30.06,29.90,5,1,8,0.14
2013-6-25,91.7,77.5,66.6,74.4,70.0,65.1,96,80,49,29.98,29.76,8,1,16,0.20
2013-6-26,86.5,76.8,70.7,74.3,71.2,69.4,97,84,58,29.83,29.75,5,0,8,0.01
2013-6-27,80.2,73.3,68.0,73.4,69.9,66.6,96,89,78,29.83,29.66,4,1,8,0.08
2013-6-28,83.2,75.7,69.3,76.0,71.1,67.5,95,86,68,29.68,29.48,7,1,15,0.70
2013-6-29,83.8,75.4,67.9,72.6,69.7,66.7,97,83,63,29.72,29.49,7,1,11,0.00
2013-6-30,86.3,76.5,71.3,74.5,71.3,68.9,94,84,64,29.93,29.72,7,1,9,0.07
2013-7-1,79.1,75.3,72.7,75.7,72.5,70.6,94,91,87,30.08,29.93,6,0,10,0.11
2013-7-2,85.0,77.3,73.7,76.0,72.6,71.4,93,86,71,30.18,30.07,5,1,10,0.00
2013-7-3,87.2,78.3,72.7,76.2,72.6,69.7,91,83,68,30.24,30.16,7,1,10,0.00
2013-7-4,91.4,81.8,72.9,77.2,74.0,71.3,95,79,58,30.23,30.12,8,1,10,0.00
2013-7-5,93.4,83.0,73.4,77.4,73.7,70.6,91,75,54,30.19,30.06,6,1,11,0.00
2013-7-6,94.0,83.3,75.3,77.2,73.5,71.3,88,74,51,30.11,30.00,5,1,9,0.00
2013-7-7,94.3,82.3,73.3,78.9,74.6,71.5,94,79,53,30.04,29.90,5,0,11,0.02
2013-7-8,91.0,79.8,70.2,75.3,71.1,67.8,94,76,50,30.05,29.92,7,1,8,1.12
2013-7-9,84.0,75.4,68.4,74.6,70.7,67.2,97,86,65,30.09,30.01,5,0,6,0.00
2013-7-10,86.6,77.4,73.1,77.3,73.6,70.6,95,88,71,30.04,29.80,7,1,8,0.64
2013-7-11,83.7,76.3,70.2,75.4,71.3,66.6,97,86,60,29.93,29.79,3,0,5,0.24
2013-7-12,82.2,73.4,68.0,69.9,64.3,56.4,93,74,60,30.17,29.93,6,1,10,0.00
2013-7-13,81.8,73.3,67.6,75.8,69.0,59.2,95,87,68,30.31,30.17,3,0,5,0.11
2013-7-14,91.3,81.1,73.3,77.3,74.1,71.7,97,81,54,30.32,30.21,5,0,7,0.04
2013-7-15,93.0,82.8,72.2,76.1,72.8,69.6,96,74,50,30.22,30.11,4,0,7,0.00
2013-7-16,94.0,82.1,70.1,75.0,70.9,67.8,96,71,45,30.19,30.11,6,0,8,0.00
2013-7-17,93.7,82.1,70.4,77.4,72.6,68.9,95,75,48,30.20,30.04,4,0,7,0.00
2013-7-18,95.7,85.3,74.7,78.3,73.7,70.1,87,70,46,30.05,29.94,5,0,7,0.00
2013-7-19,97.0,86.6,77.2,80.4,76.2,73.7,90,72,51,29.95,29.75,10,1,11,0.00
2013-7-20,94.1,84.2,72.5,77.3,73.4,62.8,88,71,49,29.84,29.68,6,1,9,0.00
2013-7-21,87.3,77.4,68.6,69.9,65.9,60.8,91,69,43,29.98,29.84,3,0,6,0.01
2013-7-22,85.7,76.3,67.2,73.8,69.5,64.8,94,80,60,29.99,29.84,6,1,9,0.00
2013-7-23,89.0,77.3,72.7,77.0,72.8,71.0,95,87,62,29.83,29.55,6,1,10,0.43
2013-7-24,82.1,75.3,66.8,73.0,67.0,58.4,97,77,57,29.94,29.60,5,1,8,0.00
2013-7-25,66.7,61.5,58.8,58.9,55.2,49.2,94,80,67,30.09,29.94,7,1,7,0.14
2013-7-26,74.0,65.9,60.4,66.4,62.2,58.7,96,88,70,30.06,29.99,4,0,7,0.31
2013-7-27,84.1,72.8,63.2,69.5,65.0,62.0,97,79,51,30.07,29.99,6,1,8,0.00
2013-7-28,80.8,72.1,64.2,70.9,65.9,62.7,96,82,60,30.02,29.95,3,0,6,0.00
2013-7-29,87.1,75.7,64.9,73.0,67.5,62.1,96,78,50,30.08,29.96,5,1,7,0.00
2013-7-30,82.2,70.9,59.6,63.6,59.7,56.3,93,70,44,30.15,30.07,7,1,8,0.00
2013-7-31,82.5,70.8,58.1,64.5,60.6,56.3,95,72,43,30.16,30.05,5,0,5,0.00
2013-8-1,79.4,69.0,62.3,68.8,64.5,60.7,95,86,63,30.06,29.86,4,0,7,0.15
2013-8-2,83.8,73.4,65.6,68.6,64.1,60.1,97,75,49,29.90,29.80,5,1,11,0.24
2013-8-3,79.4,70.0,61.8,67.5,63.4,60.1,95,80,62,29.89,29.80,7,0,9,0.00
2013-8-4,79.5,67.1,56.3,64.6,58.3,54.0,97,76,50,29.94,29.82,6,1,9,0.01
2013-8-5,78.0,65.0,52.0,56.8,52.1,47.7,96,67,37,30.06,29.94,10,1,10,0.00
2013-8-6,80.7,66.3,50.3,61.5,55.6,48.9,96,72,42,30.15,30.06,5,0,9,0.00
2013-8-7,79.8,68.8,56.3,64.3,60.0,54.7,95,75,51,30.19,30.11,7,1,9,0.00
2013-8-8,82.4,74.0,68.4,73.6,69.2,63.6,95,86,71,30.11,30.02,6,1,9,0.04
2013-8-9,78.7,75.1,73.4,76.1,72.8,70.1,96,93,88,30.03,29.78,7,1,9,1.10
2013-8-10,84.2,73.2,60.2,72.2,63.0,53.3,98,73,43,30.06,29.83,5,1,10,0.01
2013-8-11,80.6,67.1,51.9,61.5,56.0,50.5,95,70,44,30.12,30.02,4,0,7,0.00
2013-8-12,82.7,71.6,62.2,65.0,61.7,58.1,95,73,46,30.04,29.93,5,0,8,0.00
2013-8-13,76.0,70.4,64.9,70.2,65.8,60.5,96,86,68,29.95,29.69,4,0,7,0.02
2013-8-14,74.9,66.1,54.7,64.7,55.6,52.4,92,70,50,30.01,29.72,8,1,13,0.00
2013-8-15,78.2,64.6,50.3,60.1,53.6,48.9,96,71,40,30.14,30.01,7,1,8,0.00
2013-8-16,78.4,64.2,51.9,61.5,55.5,50.5,96,76,44,30.22,30.13,2,0,5,0.00
2013-8-17,83.1,68.2,53.9,65.4,57.9,52.5,96,73,40,30.29,30.22,4,0,7,0.00
2013-8-18,78.3,68.2,59.4,65.8,61.4,57.7,95,80,54,30.28,30.12,3,0,4,0.00
2013-8-19,80.0,70.3,59.1,67.2,61.6,56.4,92,75,55,30.12,30.00,5,0,7,0.00
2013-8-20,86.3,73.7,60.3,67.0,62.8,59.2,97,72,45,30.13,30.02,5,0,9,0.00
2013-8-21,89.1,74.7,60.4,69.2,63.6,59.3,96,71,43,30.17,30.04,5,0,7,0.00
2013-8-22,81.6,73.3,64.7,72.5,68.8,63.2,96,86,70,30.06,29.86,5,0,10,0.00
2013-8-23,82.8,73.0,62.5,69.9,61.5,55.0,96,70,40,30.13,29.86,7,1,9,0.00
2013-8-24,80.6,66.3,52.0,58.1,54.5,50.4,95,69,41,30.36,30.13,4,0,9,0.00
2013-8-25,84.9,68.2,51.3,60.5,54.8,49.5,97,68,31,30.40,30.21,4,0,8,0.00
2013-8-26,77.7,69.9,67.4,68.1,63.1,57.8,96,80,67,30.22,29.91,5,0,6,0.46
2013-8-27,85.8,74.6,68.3,74.3,69.9,67.4,97,86,61,29.91,29.83,4,0,7,1.38
2013-8-28,86.8,73.8,65.7,74.7,69.2,64.8,97,86,62,29.92,29.84,5,0,8,0.00
2013-8-29,76.1,70.5,65.1,69.5,65.4,60.9,93,84,73,30.07,29.92,4,1,7,0.00
2013-8-30,83.9,71.6,62.3,70.8,65.7,59.7,93,82,60,30.04,29.85,3,0,7,0.00
2013-8-31,81.1,75.6,72.1,74.4,71.6,69.0,92,87,78,29.86,29.79,5,1,9,0.00
2013-9-1,82.7,75.9,70.2,75.8,72.4,69.0,97,89,74,29.86,29.81,3,0,7,0.46
2013-9-2,81.5,75.0,69.8,75.2,72.0,67.8,96,91,76,29.84,29.69,4,0,8,0.14
2013-9-3,78.5,71.0,61.8,71.8,66.1,58.2,97,85,73,29.87,29.70,3,0,5,0.01
2013-9-4,80.7,68.3,57.3,62.7,58.3,55.3,95,73,43,29.96,29.86,5,1,8,0.00
2013-9-5,75.9,64.5,50.6,63.7,54.3,43.8,95,73,37,30.16,29.90,5,0,9,0.01
2013-9-6,69.4,56.4,44.3,50.5,46.9,43.2,96,74,43,30.27,30.13,4,0,7,0.00
2013-9-7,78.9,63.0,46.4,59.3,51.4,44.9,95,69,38,30.13,29.89,4,0,10,0.00
2013-9-8,78.7,67.3,51.0,64.7,55.0,43.1,84,66,40,30.11,29.80,6,1,12,0.00
2013-9-9,72.0,58.2,42.5,54.3,47.3,40.7,95,69,42,30.26,30.11,7,0,8,0.00
2013-9-10,79.6,69.9,60.5,72.5,65.8,54.0,93,87,78,30.18,29.99,5,1,11,0.09
2013-9-11,95.1,80.7,69.9,79.4,73.1,67.7,97,79,52,30.10,29.97,6,1,9,0.00
2013-9-12,87.7,76.1,68.8,75.5,70.9,67.3,96,85,61,29.98,29.68,10,1,10,0.56
2013-9-13,78.4,69.6,59.5,68.5,63.7,54.8,97,82,61,29.81,29.61,4,0,9,0.03
2013-9-14,68.3,58.5,49.9,55.2,51.2,48.0,94,78,59,30.10,29.81,7,1,8,0.00
2013-9-15,70.8,56.9,43.6,53.5,48.7,42.5,96,77,48,30.21,30.08,3,0,5,0.00
2013-9-16,70.7,59.4,49.0,59.0,52.4,38.1,94,79,56,30.28,30.05,7,0,10,0.02
2013-9-17,62.4,48.5,38.7,45.5,40.4,36.0,93,75,47,30.45,30.28,8,1,8,0.00
2013-9-18,73.2,54.8,38.0,51.3,45.3,36.7,96,74,37,30.36,30.18,3,0,7,0.00
2013-9-19,78.0,59.8,44.4,56.3,50.5,43.3,97,75,42,30.19,30.06,4,0,5,0.00
2013-9-20,80.4,62.0,46.6,60.5,53.6,45.5,97,77,41,30.11,30.01,5,0,7,0.00
2013-9-21,76.7,65.2,52.2,67.2,60.5,51.1,97,85,70,30.04,29.70,8,1,14,0.00
2013-9-22,72.0,63.5,52.1,67.2,55.1,44.3,97,76,49,29.89,29.63,7,1,12,0.60
2013-9-23,64.7,52.7,41.9,48.2,44.1,40.3,95,74,52,30.06,29.88,8,1,8,0.00
2013-9-24,70.0,53.1,40.3,48.9,43.9,38.4,95,74,39,30.06,29.85,7,1,10,0.00
2013-9-25,71.8,56.9,41.9,55.7,49.1,40.8,97,78,51,29.98,29.88,4,0,6,0.00
2013-9-26,67.2,58.2,48.3,53.8,50.8,46.8,95,78,54,30.13,29.98,4,0,5,0.00
2013-9-27,64.5,56.1,48.3,55.2,51.4,46.9,96,85,66,30.30,30.13,5,0,5,0.00
2013-9-28,74.4,57.3,44.1,59.1,51.7,43.0,97,84,51,30.36,30.26,3,0,6,0.00
2013-9-29,71.5,56.3,45.8,59.2,50.1,44.7,97,82,44,30.27,30.11,3,0,5,0.00
2013-9-30,72.9,55.9,41.8,56.4,49.5,40.7,97,82,47,30.13,29.98,4,0,5,0.00
2013-10-1,78.9,59.9,45.2,61.2,53.5,44.1,97,82,52,30.02,29.88,4,0,5,0.00
2013-10-2,81.0,64.6,50.5,63.9,58.0,49.7,97,81,54,30.01,29.89,6,0,11,0.00
2013-10-3,77.6,60.9,46.5,56.6,51.4,45.3,97,75,32,30.13,30.01,5,0,5,0.00
2013-10-4,71.7,60.1,52.0,64.0,56.7,50.7,96,89,75,30.09,30.02,3,0,6,0.03
2013-10-5,73.8,65.2,59.9,65.2,61.4,58.1,96,88,73,30.12,30.05,3,0,5,0.01
2013-10-6,64.8,60.4,57.6,61.4,58.6,55.3,96,94,88,30.19,30.09,2,0,4,0.95
2013-10-7,77.6,66.7,58.2,70.9,63.9,56.5,98,91,77,30.10,29.80,9,1,17,0.28
2013-10-8,68.2,55.5,45.5,56.4,47.0,41.3,96,76,40,30.37,29.95,5,0,10,0.00
2013-10-9,64.7,52.0,40.2,50.3,44.3,38.9,96,77,49,30.48,30.36,6,0,8,0.00
2013-10-10,59.9,51.7,44.1,53.8,48.2,42.2,96,88,79,30.36,30.17,3,0,7,0.00
2013-10-11,73.1,58.8,48.0,61.1,53.3,46.6,95,83,64,30.16,30.07,5,0,8,0.00
2013-10-12,70.0,56.7,43.8,58.7,51.4,42.7,97,83,65,30.37,30.14,8,1,11,0.00
2013-10-13,62.4,55.1,47.4,51.7,49.1,44.9,93,81,66,30.44,30.35,4,0,9,0.00
2013-10-14,65.6,52.8,38.4,51.5,46.3,37.3,96,80,53,30.41,30.26,3,0,5,0.00
2013-10-15,73.5,58.8,47.6,56.6,50.6,46.0,94,76,49,30.29,30.15,4,0,6,0.00
2013-10-16,62.2,54.7,47.8,53.4,50.3,46.2,95,85,71,30.17,29.93,3,0,3,0.00
2013-10-17,72.9,63.3,53.6,63.0,59.0,51.6,94,87,67,29.93,29.70,4,0,9,0.02
2013-10-18,69.2,60.2,44.9,61.7,51.8,42.1,94,76,48,29.96,29.64,6,1,11,0.01
2013-10-19,66.8,53.2,38.9,51.7,44.0,37.6,96,73,42,30.00,29.76,7,0,9,0.01
2013-10-20,63.6,52.8,39.7,53.0,42.1,35.7,96,71,37,30.06,29.73,7,1,10,0.05
2013-10-21,67.4,51.4,35.6,46.0,40.6,34.3,96,70,39,30.15,30.00,6,0,10,0.00
2013-10-22,66.2,53.6,44.0,53.8,47.7,41.3,96,81,57,30.00,29.73,7,0,9,0.00
2013-10-23,50.5,43.1,34.7,41.6,37.6,33.4,96,82,58,29.83,29.62,3,0,4,0.00
2013-10-24,53.8,44.1,32.9,38.1,32.2,28.0,93,65,40,29.96,29.71,7,1,12,0.00
2013-10-25,51.2,39.2,29.7,35.3,30.2,27.4,92,73,46,30.21,29.95,7,1,13,0.00
2013-10-26,55.6,42.8,28.7,36.5,31.5,27.2,95,68,38,30.21,29.90,10,1,14,0.00
2013-10-27,58.4,47.0,34.1,39.0,34.5,30.5,92,64,41,30.12,29.84,6,1,10,0.01
2013-10-28,61.1,43.3,29.0,38.3,33.2,27.5,95,71,39,30.37,30.12,10,1,13,0.00
2013-10-29,51.5,39.6,32.0,31.7,28.9,26.1,91,68,40,30.48,30.37,4,0,6,0.00
2013-10-30,54.5,42.1,32.3,47.0,36.0,28.9,95,80,60,30.38,30.21,3,0,4,0.00
2013-10-31,63.3,51.1,34.5,59.5,48.4,33.5,96,91,79,30.26,29.81,6,1,14,0.06
2013-11-1,67.9,63.5,58.3,62.8,58.7,54.4,93,84,73,29.81,29.51,17,2,21,0.16
2013-11-2,67.3,53.5,41.7,54.4,45.5,40.6,96,77,40,29.77,29.61,6,0,7,0.01
2013-11-3,50.2,42.8,31.5,46.1,30.8,18.8,92,64,42,30.47,29.77,10,1,11,0.00
2013-11-4,45.3,33.4,22.2,24.6,20.5,17.9,85,61,36,30.71,30.47,7,0,7,0.00
2013-11-5,53.2,41.0,26.8,38.7,31.8,22.8,86,71,51,30.73,30.52,5,0,8,0.00
2013-11-6,60.8,50.6,36.3,51.9,43.7,34.5,95,78,58,30.53,30.08,10,1,11,0.00
2013-11-7,63.6,53.0,37.9,58.7,49.4,33.8,95,88,78,30.08,29.71,5,1,9,0.17
2013-11-8,49.7,41.0,33.9,35.2,31.0,25.1,91,69,50,30.17,29.89,10,1,15,0.01
2013-11-9,46.5,39.1,26.7,33.9,28.7,23.6,89,67,51,30.28,30.02,6,1,7,0.00
2013-11-10,59.1,47.5,36.8,41.6,36.9,33.4,89,67,45,30.02,29.78,9,1,14,0.00
2013-11-11,53.1,46.6,39.7,34.0,31.5,28.6,70,56,42,30.17,29.94,10,2,15,0.00
2013-11-12,50.2,35.9,23.1,38.2,24.8,16.5,86,64,53,30.25,29.93,15,1,15,0.04
2013-11-13,37.9,27.9,17.2,18.9,16.2,12.8,90,64,37,30.36,30.24,5,1,10,0.00
2013-11-14,51.4,40.2,28.5,24.0,21.1,17.6,68,48,31,30.24,30.11,6,1,9,0.00
2013-11-15,60.2,43.9,28.0,35.2,25.2,16.5,82,51,24,30.24,30.14,6,1,9,0.00
2013-11-16,59.7,45.4,34.3,42.1,35.8,29.7,93,71,45,30.34,30.23,3,0,6,0.00
2013-11-17,60.8,51.2,35.8,58.4,48.5,34.1,95,91,80,30.31,29.83,5,1,8,0.00
2013-11-18,65.2,59.4,43.2,60.7,46.1,33.6,94,64,38,29.83,29.57,9,2,13,0.21
2013-11-19,46.5,40.4,31.4,34.7,25.0,20.6,74,54,44,30.35,29.73,11,2,14,0.00
2013-11-20,40.9,30.7,20.7,20.8,18.3,16.4,86,61,39,30.66,30.35,7,1,10,0.00
2013-11-21,47.0,33.0,17.2,35.9,24.3,14.5,90,72,44,30.68,30.42,5,0,5,0.00
2013-11-22,50.9,46.7,41.9,49.1,44.0,35.5,96,91,78,30.41,29.87,3,0,5,0.14
2013-11-23,49.1,40.3,28.8,47.3,28.2,14.6,95,63,41,30.02,29.86,11,2,15,0.00
2013-11-24,28.9,23.9,19.9,14.7,6.5,2.6,59,47,37,30.31,29.92,14,3,18,0.00
2013-11-25,33.8,26.7,16.7,19.8,11.2,4.6,64,52,42,30.46,30.31,8,1,10,0.00
2013-11-26,40.4,36.0,32.2,36.9,22.5,14.8,95,60,44,30.35,29.97,7,1,7,0.16
2013-11-27,63.2,48.3,36.2,61.1,45.9,30.4,96,92,76,29.96,29.29,14,2,19,1.65
2013-11-28,37.3,29.9,21.3,30.7,17.4,11.1,78,60,41,30.49,29.61,12,2,18,0.00
2013-11-29,35.1,28.0,21.3,20.7,17.2,14.1,86,64,47,30.76,30.49,4,0,8,0.00
2013-11-30,33.5,25.0,13.4,23.5,15.6,10.5,89,69,43,30.82,30.43,4,0,6,0.00
2013-12-1,40.5,34.6,30.0,37.5,30.6,22.1,93,86,70,30.43,30.05,2,0,3,0.03
2013-12-2,41.4,36.4,29.4,37.5,34.2,28.1,95,92,84,30.05,29.93,2,0,3,0.00
2013-12-3,44.4,34.5,26.9,37.9,32.5,25.7,97,93,77,30.02,29.89,3,0,5,0.00
2013-12-4,47.2,34.2,24.9,35.6,29.6,23.4,95,85,59,30.20,30.02,3,0,4,0.01
2013-12-5,55.4,42.0,36.4,54.3,39.9,32.1,97,92,82,30.20,29.96,3,0,6,0.03
2013-12-6,55.6,46.2,35.5,54.5,43.5,33.7,96,90,78,30.17,29.89,6,1,9,0.40
2013-12-7,38.8,34.0,28.8,34.1,27.8,20.9,95,79,61,30.51,30.11,6,1,13,0.08
2013-12-8,31.9,28.1,20.2,23.1,19.9,16.7,90,72,61,30.63,30.48,3,0,4,0.00
2013-12-9,33.8,31.3,26.9,32.6,29.1,20.0,96,92,65,30.48,29.95,4,0,6,0.03
2013-12-10,34.6,30.3,22.1,33.6,29.0,20.2,96,95,92,30.07,29.83,3,0,5,0.03
2013-12-11,29.7,23.4,15.1,23.4,19.1,12.9,94,84,71,30.29,30.07,5,1,8,0.01
2013-12-12,25.6,18.8,11.3,17.8,10.9,6.8,90,72,48,30.34,30.13,6,1,9,0.00
2013-12-13,31.7,23.6,15.0,19.3,13.6,7.6,79,66,55,30.40,30.08,7,1,12,0.00
2013-12-14,23.2,17.9,15.8,14.8,11.8,8.0,90,77,60,30.60,30.05,5,1,8,0.00
2013-12-15,33.6,25.3,17.2,29.9,22.3,14.2,93,88,79,30.05,29.51,7,1,10,0.00
2013-12-16,30.2,22.4,9.0,22.8,13.7,5.9,93,71,44,30.25,29.79,9,0,10,0.01
2013-12-17,16.6,11.8,3.3,13.7,8.8,0.1,89,87,85,30.29,29.98,6,1,8,0.00
2013-12-18,34.3,23.4,14.7,24.5,18.0,11.3,89,80,65,30.14,29.95,7,0,8,0.01
2013-12-19,45.1,33.6,21.6,29.3,24.8,17.5,87,71,50,30.17,29.99,7,1,10,0.19
2013-12-20,51.3,39.3,27.6,36.3,31.6,25.6,93,75,55,30.13,29.96,4,0,7,0.05
2013-12-21,56.8,49.4,39.2,49.4,43.8,34.5,92,81,71,30.00,29.89,4,1,10,0.00
2013-12-22,65.6,60.2,51.9,60.5,56.3,49.4,93,87,78,29.97,29.77,8,2,13,0.00
2013-12-23,61.4,49.7,37.9,56.2,47.3,29.0,96,92,70,30.16,29.92,10,1,11,0.89
2013-12-24,37.8,33.1,24.1,28.9,21.8,11.3,75,63,50,30.31,30.09,7,2,11,0.01
2013-12-25,24.9,20.7,15.3,12.0,7.6,4.9,65,57,43,30.55,30.31,8,1,12,0.00
2013-12-26,31.1,24.8,19.3,27.2,18.8,11.1,92,78,62,30.49,30.15,3,0,5,0.00
2013-12-27,37.0,26.4,16.5,24.7,20.3,14.3,93,79,57,30.35,30.24,4,0,9,0.01
2013-12-28,48.7,34.6,21.7,29.9,25.9,19.2,90,73,45,30.28,30.05,9,1,11,0.01
2013-12-29,44.9,36.9,28.6,38.9,33.7,25.5,95,88,67,30.06,29.45,8,1,11,1.06
2013-12-30,38.4,30.5,16.7,37.1,23.2,6.3,96,76,53,30.22,29.63,7,1,11,0.01
2013-12-31,27.1,20.0,10.4,21.1,10.9,4.8,85,68,52,30.26,30.06,5,0,8,0.00
2014-1-1,30.6,24.2,15.5,18.9,11.3,7.8,83,59,39,30.42,30.26,9,1,10,0.00
2014-1-2,23.3,18.2,8.7,19.7,14.8,5.4,90,87,82,30.35,29.81,7,1,12,0.00